STARLINK-32842, 62822

Orbit data source: Space-Track

STARLINK-32842, 62822 is a payload satellite owned by SpaceX/Seattle (US) in LEO that was launched on Fri, 24 Jan 2025 UTC via an FALCON 9 launch vehicle from the Air Force Western Test Range (AFWTR). Payload-class satellites include a variety of spacecraft equipped with specific instruments for various scientific and technological missions. These include communications satellites like Starlink; space stations such as the ISS; scientific satellites like the Hubble; Earth observation satellites from companies like Planet Labs, Umbra, and HawkEye 360; GPS; miniature CubeSats for education and research; and military/defense satellites.

Loading next visibility...
Identifier
62822, 2025-018S
Orbit
LEO
Country
Flag of USUS
Related business
Manufacturer
SpaceX/Seattle
Mission
Operational Commercial Communications
Bus & Motor
STARLINK V2M, Unknown motor
Mass
730 kg wet, ~700 kg dry
Launch date (UTC)
2025-01-24 (10 months ago)
Launch vehicle
FALCON 9
Launch site
Air Force Western Test Range (AFWTR)
Object type
Payload
Rocket body
Debris
Shape & HBR
Box + 2 Pan, 17.7 m
Radar Cross Section
33.884 m², Large (>1 m²)

Expand to show TLE details & history
Last TLE update: 10 hours ago

TLE from 10 hours ago
0 STARLINK-32842
1 62822U 25018S   25340.90707122  .00059526  00000-0  20069-2 0  9994
2 62822  53.1600  20.5154 0001547  80.0220 280.0955 15.30183257 48975
Epoch: 2025-12-06T21:46Z
TLE epoch observation values (Epoch: 2025-12-06T21:46:10.953Z)
Latitude
-0.00004°
Longitude
-21.95835°
Altitude
475.979 km
Speed
7.629 km/s
True Right ascension
01h 22m 03s
True Declination
0° 00' 00"
Sunlit
Object was in full shadow at epoch
Visualization orbit readout
Latitude
Unknown
Longitude
Unknown
Altitude
Unknown
Speed
Unknown
Apparent Right ascension
Unknown
Apparent Declination
Unknown
Sunlit
N/A
Visualization observer readout
Local Sidereal Time
05:21:45
Azimuth
Unknown
Elevation
Unknown
Doppler factor
Unknown
Orbital elements
Apogee altitude
476.582 km
Perigee altitude
474.461 km
Semi-major axis
6,853.658 km
Eccentricity
0.00015
Inclination
53.16°
RAAN
20.5154°
Arg. of periapsis
80.022°
True anomaly
280.07805°
Mean anomaly
280.0955°
Eccentric anomaly
280.08677°
Mean motion
3.82525 °/min
Orbital period
94.11 mins
BSTAR
0.0020069
Loading maneuver chart data...
Computing Atmospheric mass density...
Loading historical data...
Loading historical data...
Loading historical data...
Loading historical data...
Loading historical data...
Loading historical data...
Loading historical data...

Documentation

Showing up to 5 results
|